Terminal Aerodrome Forecast
Issued by NWS Binghamton, NY

Home | Current Version | Previous Version | Text Only | Print | Product List | Glossary On
Versions: 1 2 3 4 5 6 7 8 9 10 11 12 13 14 15 16 17 18 19 20 21 22
000
FTUS41 KBGM 230500
TAFBGM
TAF
KBGM 230534Z 2306/2406 30007KT P6SM SCT040
     FM231600 30006KT P6SM BKN035
     FM232300 VRB06KT P6SM FEW040=

USA.gov is the U.S. government's official web portal to all federal, state and local government web resources and services.